Location: Lake Almanor
(40.2485°N, 121.1442°W)
Time: 10:49:05
(UTC-08:00)

STARLINK-1086 - Pass Details

Date: 30 January 2020
Orbit: 349 x 351 km, 53.0° (Epoch: 18 February)

Event Time Altitude Azimuth Distance (km) Brightness Sun altitude
Rises 19:17:52 0° 308° (NW) 2,165 7.4 -22.5°
Reaches altitude 10° 19:19:53 10° 307° (NW) 1,319 6.2 -22.9°
Enters shadow 19:21:18 25° 303° (WNW) 757 4.8 -23.2°
